This is the latest recevied weather packets stored in our database for station/object EA3CO-11. If no packets are shown the sender has not sent any weather packets the latest 10 day(s).
| Time | Temp. | Humidity | Pressure | Rain* | Wind** | Luminosity | Snow |
|---|---|---|---|---|---|---|---|
| 1777442537 | 16.11° C | 88% | 1014.1 hPa | - | - | - | - |
| 1777441637 | 15.56° C | 89% | 1014.3 hPa | - | - | - | - |
| 1777440737 | 16.11° C | 89% | 1014.3 hPa | - | - | - | - |
| 1777439837 | 16.11° C | 88% | 1014.2 hPa | - | - | - | - |
| 1777438937 | 15.56° C | 87% | 1014.3 hPa | - | - | - | - |
| 1777438037 | 15.56° C | 87% | 1014.2 hPa | - | - | - | - |
| 1777437136 | 16.11° C | 85% | 1014.3 hPa | - | - | - | - |
| 1777436236 | 16.67° C | 85% | 1014.3 hPa | - | - | - | - |
| 1777435336 | 16.11° C | 85% | 1014.5 hPa | - | - | - | - |
| 1777434436 | 16.11° C | 84% | 1014.6 hPa | - | - | - | - |
| 1777433536 | 16.11° C | 86% | 1014.5 hPa | - | - | - | - |
| 1777432636 | 16.11° C | 86% | 1014.8 hPa | - | - | - | - |
| 1777431736 | 16.11° C | 86% | 1014.7 hPa | - | - | - | - |
| 1777430835 | 16.67° C | 86% | 1014.7 hPa | - | - | - | - |
| 1777429935 | 16.67° C | 88% | 1015 hPa | - | - | - | - |
| 1777429035 | 16.11° C | 93% | 1015.1 hPa | - | - | - | - |
| 1777428135 | 16.11° C | 92% | 1015.1 hPa | - | - | - | - |
| 1777427234 | 16.11° C | 90% | 1015.3 hPa | - | - | - | - |
| 1777426334 | 16.67° C | 88% | 1015.4 hPa | - | - | - | - |
| 1777425434 | 16.11° C | 90% | 1015.5 hPa | - | - | - | - |
| 1777424534 | 16.67° C | 87% | 1015.4 hPa | - | - | - | - |
| 1777423634 | 16.11° C | 87% | 1015.8 hPa | - | - | - | - |
| 1777422734 | 16.11° C | 87% | 1015.8 hPa | - | - | - | - |
| 1777421834 | 16.67° C | 87% | 1015.9 hPa | - | - | - | - |
| 1777420934 | 16.67° C | 88% | 1016.1 hPa | - | - | - | - |
* Rain since midnight (hover to see other rain measurements)
** Current wind speed in m/s (hover to see current wind gust speed)